922  
ASUS43 KARX 101710  
RWRARX  
 
HOURLY WEATHER FOR THE UPPER MISSISSIPPI RIVER VALLEY  
NATIONAL WEATHER SERVICE LA CROSSE WI  
1200 PM CDT WED AUG 10 2022  
 
NOTE: "FAIR" INDICATES FEW OR NO CLOUDS BELOW 12,000 FEET WITH NO  
SIGNIFICANT WEATER AND/OR S TO VISIBILITY
.  
 
MNZ077-085>088-093>096-101800  
SOUTHEAST MINNESOTA  
 
CITY SKY/WX TMP DP RH WIND PRES REMARKS
 
ROCHESTER SUNNY 78 66 66 NW5 30.21S  
WINONA SUNNY 81 68 65 CALM 30.18S  
AUSTIN SUNNY 79 66 65 N3 30.21S  
ALBERT LEA SUNNY 79 66 65 N3 30.21S  
DODGE CENTER N/A 79 64 61 NW6 30.21S  
PRESTON SUNNY 78 65 64 CALM 30.22R  
OWATONNA SUNNY 79 66 65 NW3 30.20S  
FARIBAULT SUNNY 81 66 61 SW3 30.19F  

 
 
WIZ041-042-053>056-061-101800  
SOUTHWEST WISCONSIN  
 
CITY SKY/WX TMP DP RH WIND PRES REMARKS
 
LA CROSSE SUNNY 82 64 54 N7 30.17F  
SPARTA SUNNY 80 65 59 W6 30.19S  
VIROQUA SUNNY 77 67 72 NW5 30.21S  
WIS DELLS MOSUNNY 76 63 64 W3 30.18F  
PRAIRIE DU CHI SUNNY 79 63 58 W3 30.19F  
BOSCOBEL MOSUNNY 80 65 59 W7 30.19F  
LONE ROCK SUNNY 78 66 66 W5 30.18F  
PLATTEVILLE FAIR 76 68 76 W6 30.22F  

 
 
WIZ017-030-034>036-043>045-101800  
CENTRAL WISCONSIN  
 
CITY SKY/WX TMP DP RH WIND PRES REMARKS
 
MEDFORD SUNNY 76 65 69 NW6 30.17S  
WAUSAU NOT AVBL  
BLACK RVR FLS SUNNY 82 65 55 SW7 30.16S  
WIS RAPIDS SUNNY 81 66 60 SW6 30.17S  
MARSHFIELD SUNNY 80 67 64 NW7 30.17S  
MAUSTON FAIR 79 66 64 W6 30.18S  
CAMP DOUGLAS MOSUNNY 81 64 57 W6 30.16S  
WAUTOMA NOT AVBL  

 
 
IAZ008>011-017>019-029-030-101800  
NORTHEAST IOWA  
 
CITY SKY/WX TMP DP RH WIND PRES REMARKS
 
WATERLOO SUNNY 82 65 56 NW6 30.20S  
DUBUQUE MOSUNNY 76 65 68 W7 30.23S  
DECORAH SUNNY 77 68 73 CALM 30.20S  
MASON CITY SUNNY 81 65 58 W5 30.22F  
CHARLES CITY SUNNY 79 66 65 N5 30.22S  
OELWEIN SUNNY 77 64 65 NW5 30.23S  

 
 
WIND SPEEDS ARE IN MILES PER HOUR.  
 
ABBREVIATIONS USED IN THE REMARKS:  
VSB - VISIBILITY IN STATUTE MILES  
WCI - WIND CHILL INDEX  
HX - HEAT INDEX  
 
 
CLICK HERE TO GO TO PREVIOUS BULLETINS.

The Nexlab WI Page
The Nexlab IA Page
The Nexlab MN Page Main Text Page